Time,TemperatureF,DewpointF,PressureIn,WindDirection,WindDirectionDegrees,WindSpeedMPH,WindSpeedGustMPH,Humidity,HourlyPrecipIn,Conditions,Clouds,dailyrainin,SoftwareType,DateUTC
2013-07-20 00:01:00,73.1,0.0,30.04,SE,127,0.0,0.0,0,0.00,,OVC043,0.00,VWS V14.01,2013-07-20 04:01:00,
2013-07-20 00:02:00,73.1,0.0,30.04,SE,127,0.0,0.0,0,0.00,,OVC043,0.00,VWS V14.01,2013-07-20 04:02:00,
2013-07-20 00:07:00,73.0,0.0,30.04,SE,128,0.0,0.0,0,0.00,,OVC043,0.00,VWS V14.01,2013-07-20 04:07:00,
2013-07-20 00:12:00,73.0,0.0,30.04,SE,127,0.0,0.0,0,0.00,,OVC043,0.00,VWS V14.01,2013-07-20 04:12:00,
2013-07-20 00:17:00,72.9,0.0,30.04,SE,127,0.0,0.0,0,0.00,,OVC043,0.00,VWS V14.01,2013-07-20 04:17:00,
2013-07-20 00:22:00,72.9,0.0,30.04,SE,127,0.0,0.0,0,0.00,,OVC043,0.00,VWS V14.01,2013-07-20 04:22:00,
2013-07-20 00:27:00,72.9,0.0,30.03,SE,127,0.0,0.0,0,0.00,,OVC043,0.00,VWS V14.01,2013-07-20 04:27:00,
2013-07-20 00:32:00,72.8,0.0,30.03,SE,127,0.0,0.0,0,0.00,,OVC043,0.00,VWS V14.01,2013-07-20 04:32:00,
2013-07-20 00:37:00,72.7,0.0,30.03,SE,127,0.0,0.0,0,0.00,,OVC043,0.00,VWS V14.01,2013-07-20 04:37:00,
2013-07-20 00:42:00,72.7,0.0,30.03,SE,127,0.0,1.0,0,0.00,,OVC043,0.00,VWS V14.01,2013-07-20 04:42:00,
2013-07-20 00:47:00,72.7,0.0,30.03,SE,128,0.0,1.0,0,0.00,,OVC043,0.00,VWS V14.01,2013-07-20 04:47:00,
2013-07-20 00:52:00,72.7,0.0,30.02,SE,127,0.0,1.0,0,0.00,,OVC043,0.00,VWS V14.01,2013-07-20 04:52:00,
2013-07-20 00:57:00,72.6,0.0,30.02,SE,127,0.0,1.0,0,0.00,,OVC043,0.00,VWS V14.01,2013-07-20 04:57:00,
2013-07-20 01:02:00,72.5,0.0,30.02,SE,127,0.0,0.0,0,0.00,,OVC043,0.00,VWS V14.01,2013-07-20 05:02:00,
2013-07-20 01:07:00,72.4,0.0,30.02,SE,127,0.0,0.0,0,0.00,,OVC043,0.00,VWS V14.01,2013-07-20 05:07:00,
2013-07-20 01:12:00,72.5,0.0,30.02,SE,127,0.0,0.0,0,0.00,,OVC043,0.00,VWS V14.01,2013-07-20 05:12:00,
2013-07-20 01:17:00,72.4,0.0,30.02,SE,127,0.0,0.0,0,0.00,,OVC043,0.00,VWS V14.01,2013-07-20 05:17:00,
2013-07-20 01:22:00,72.4,0.0,30.02,SE,129,0.0,0.0,0,0.00,,OVC043,0.00,VWS V14.01,2013-07-20 05:22:00,
2013-07-20 01:27:00,72.4,0.0,30.02,SE,127,0.0,0.0,0,0.00,,OVC043,0.00,VWS V14.01,2013-07-20 05:27:00,
2013-07-20 01:32:00,72.4,0.0,30.02,SE,127,0.0,0.0,0,0.00,,OVC043,0.00,VWS V14.01,2013-07-20 05:32:00,
2013-07-20 01:37:00,72.3,0.0,30.02,SE,127,0.0,0.0,0,0.00,,OVC043,0.00,VWS V14.01,2013-07-20 05:37:00,
2013-07-20 01:42:00,72.3,0.0,30.01,SE,127,0.0,0.0,0,0.00,,OVC043,0.00,VWS V14.01,2013-07-20 05:42:00,
2013-07-20 01:47:00,72.2,0.0,30.01,SE,128,0.0,0.0,0,0.00,,OVC043,0.00,VWS V14.01,2013-07-20 05:47:00,
2013-07-20 01:52:00,72.2,0.0,30.01,SE,127,0.0,0.0,0,0.00,,OVC043,0.00,VWS V14.01,2013-07-20 05:52:00,
2013-07-20 01:57:00,72.2,0.0,30.01,SE,127,0.0,0.0,0,0.00,,OVC043,0.00,VWS V14.01,2013-07-20 05:57:00,
2013-07-20 02:02:00,72.1,0.0,30.01,SE,127,0.0,0.0,0,0.00,,OVC043,0.00,VWS V14.01,2013-07-20 06:02:00,
2013-07-20 02:07:00,72.0,0.0,30.01,SE,127,0.0,0.0,0,0.00,,OVC043,0.00,VWS V14.01,2013-07-20 06:07:00,
2013-07-20 02:12:00,72.0,0.0,30.01,SE,127,0.0,0.0,0,0.00,,OVC043,0.00,VWS V14.01,2013-07-20 06:12:00,
2013-07-20 02:17:00,72.1,0.0,30.01,SE,127,0.0,1.0,0,0.00,,OVC043,0.00,VWS V14.01,2013-07-20 06:17:00,
2013-07-20 02:22:00,72.1,0.0,30.01,SE,127,0.0,1.0,0,0.00,,OVC043,0.00,VWS V14.01,2013-07-20 06:22:00,
2013-07-20 02:27:00,72.1,0.0,30.02,SE,127,0.0,1.0,0,0.00,,OVC043,0.00,VWS V14.01,2013-07-20 06:27:00,
2013-07-20 02:32:00,72.2,0.0,30.01,SE,127,0.0,0.0,0,0.00,,OVC043,0.00,VWS V14.01,2013-07-20 06:32:00,
2013-07-20 02:37:00,72.1,0.0,30.02,SE,127,0.0,0.0,0,0.00,,OVC043,0.00,VWS V14.01,2013-07-20 06:37:00,
2013-07-20 02:42:00,71.9,0.0,30.01,SE,127,0.0,0.0,0,0.00,,OVC043,0.00,VWS V14.01,2013-07-20 06:42:00,
2013-07-20 02:47:00,72.0,0.0,30.01,SE,127,0.0,0.0,0,0.00,,OVC043,0.00,VWS V14.01,2013-07-20 06:47:00,
2013-07-20 02:52:00,72.0,0.0,30.01,SE,127,0.0,1.0,0,0.00,,OVC043,0.00,VWS V14.01,2013-07-20 06:52:00,
2013-07-20 02:57:00,71.9,0.0,30.01,SE,127,0.0,1.0,0,0.00,,OVC043,0.00,VWS V14.01,2013-07-20 06:57:00,
2013-07-20 03:02:00,71.8,0.0,30.01,SE,127,0.0,0.0,0,0.00,,OVC043,0.00,VWS V14.01,2013-07-20 07:02:00,
2013-07-20 03:07:00,71.8,0.0,30.02,SE,127,0.0,0.0,0,0.00,,OVC043,0.00,VWS V14.01,2013-07-20 07:07:00,
2013-07-20 03:12:00,71.8,0.0,30.02,SE,127,0.0,0.0,0,0.00,,OVC043,0.00,VWS V14.01,2013-07-20 07:12:00,
2013-07-20 03:17:00,71.7,0.0,30.01,SE,127,0.0,0.0,0,0.00,,OVC043,0.00,VWS V14.01,2013-07-20 07:17:00,
2013-07-20 03:22:00,71.7,0.0,30.01,SE,127,0.0,0.0,0,0.00,,OVC043,0.00,VWS V14.01,2013-07-20 07:22:00,
2013-07-20 03:27:00,71.6,0.0,30.02,SE,127,0.0,0.0,0,0.00,,OVC043,0.00,VWS V14.01,2013-07-20 07:27:00,
2013-07-20 03:32:00,71.6,0.0,30.02,SE,127,0.0,0.0,0,0.00,,OVC043,0.00,VWS V14.01,2013-07-20 07:32:00,
2013-07-20 03:37:00,71.6,0.0,30.02,SE,127,0.0,0.0,0,0.00,,OVC043,0.00,VWS V14.01,2013-07-20 07:37:00,
2013-07-20 03:42:00,71.7,0.0,30.01,SE,129,0.0,1.0,0,0.00,,OVC043,0.00,VWS V14.01,2013-07-20 07:42:00,
2013-07-20 03:47:00,71.8,0.0,30.01,SSE,153,0.0,1.0,0,0.00,,OVC043,0.00,VWS V14.01,2013-07-20 07:47:00,
2013-07-20 03:52:00,71.8,0.0,30.01,SSE,153,0.0,1.0,0,0.00,,OVC043,0.00,VWS V14.01,2013-07-20 07:52:00,
2013-07-20 03:57:00,71.8,0.0,30.01,SSE,153,0.0,1.0,0,0.00,,OVC043,0.00,VWS V14.01,2013-07-20 07:57:00,
2013-07-20 04:02:00,71.9,0.0,30.01,SSE,153,0.0,0.0,0,0.00,,OVC043,0.00,VWS V14.01,2013-07-20 08:02:00,
2013-07-20 04:07:00,71.9,0.0,30.01,SSE,153,0.0,0.0,0,0.00,,OVC043,0.00,VWS V14.01,2013-07-20 08:07:00,
2013-07-20 04:12:00,71.9,0.0,30.01,SSE,153,0.0,0.0,0,0.00,,OVC043,0.00,VWS V14.01,2013-07-20 08:12:00,
2013-07-20 04:17:00,71.8,0.0,30.00,SSE,153,0.0,0.0,0,0.00,,OVC043,0.00,VWS V14.01,2013-07-20 08:17:00,
2013-07-20 04:22:00,71.8,0.0,30.00,SSE,153,0.0,0.0,0,0.00,,OVC043,0.00,VWS V14.01,2013-07-20 08:22:00,
2013-07-20 04:27:00,71.8,0.0,30.00,SSE,153,0.0,0.0,0,0.00,,OVC043,0.00,VWS V14.01,2013-07-20 08:27:00,
2013-07-20 04:32:00,71.7,0.0,30.00,SSE,153,0.0,0.0,0,0.00,,OVC043,0.00,VWS V14.01,2013-07-20 08:32:00,
2013-07-20 04:37:00,71.7,0.0,30.00,SSE,153,0.0,0.0,0,0.00,,OVC043,0.00,VWS V14.01,2013-07-20 08:37:00,
2013-07-20 04:42:00,71.6,0.0,30.00,SSE,153,0.0,0.0,0,0.00,,OVC043,0.00,VWS V14.01,2013-07-20 08:42:00,
2013-07-20 04:47:00,71.5,0.0,30.00,SSE,153,0.0,0.0,0,0.00,,OVC043,0.00,VWS V14.01,2013-07-20 08:47:00,
2013-07-20 04:52:00,71.4,0.0,30.00,SSE,153,0.0,0.0,0,0.00,,OVC043,0.00,VWS V14.01,2013-07-20 08:52:00,
2013-07-20 04:57:00,71.4,0.0,30.00,SSE,153,0.0,0.0,0,0.00,,OVC043,0.00,VWS V14.01,2013-07-20 08:57:00,
2013-07-20 05:02:00,71.3,0.0,30.00,SSE,153,0.0,0.0,0,0.00,,OVC043,0.00,VWS V14.01,2013-07-20 09:02:00,
2013-07-20 05:07:00,71.2,0.0,30.00,SSE,153,0.0,0.0,0,0.00,,OVC043,0.00,VWS V14.01,2013-07-20 09:07:00,
2013-07-20 05:12:00,71.2,0.0,30.00,SSE,154,0.0,0.0,0,0.00,,OVC043,0.00,VWS V14.01,2013-07-20 09:12:00,
2013-07-20 05:17:00,71.1,0.0,30.00,SSE,154,0.0,0.0,0,0.00,,OVC043,0.00,VWS V14.01,2013-07-20 09:17:00,
2013-07-20 05:22:00,71.0,0.0,30.00,SSE,154,0.0,0.0,0,0.00,,OVC043,0.00,VWS V14.01,2013-07-20 09:22:00,
2013-07-20 05:27:00,70.9,0.0,30.00,SSE,154,0.0,0.0,0,0.00,,OVC043,0.00,VWS V14.01,2013-07-20 09:27:00,
2013-07-20 05:32:00,70.9,0.0,30.00,SSE,154,0.0,0.0,0,0.00,,OVC043,0.00,VWS V14.01,2013-07-20 09:32:00,
2013-07-20 05:37:00,70.8,0.0,30.01,SSE,153,0.0,0.0,0,0.00,,OVC043,0.00,VWS V14.01,2013-07-20 09:37:00,
2013-07-20 05:42:00,70.8,0.0,30.01,SSE,154,0.0,0.0,0,0.00,,OVC043,0.00,VWS V14.01,2013-07-20 09:42:00,
2013-07-20 05:47:00,70.7,0.0,30.01,SSE,153,0.0,0.0,0,0.00,,OVC043,0.00,VWS V14.01,2013-07-20 09:47:00,
2013-07-20 05:52:00,70.7,0.0,30.01,SSE,154,0.0,0.0,0,0.00,,OVC043,0.00,VWS V14.01,2013-07-20 09:52:00,
2013-07-20 05:57:00,70.6,0.0,30.01,SSE,153,0.0,0.0,0,0.00,,OVC043,0.00,VWS V14.01,2013-07-20 09:57:00,
2013-07-20 06:02:00,70.5,0.0,30.00,SSE,153,0.0,0.0,0,0.00,,OVC043,0.00,VWS V14.01,2013-07-20 10:02:00,
2013-07-20 06:07:00,70.5,0.0,30.01,SSE,153,0.0,0.0,0,0.00,,OVC043,0.00,VWS V14.01,2013-07-20 10:07:00,
2013-07-20 06:12:00,70.5,0.0,30.01,SSE,153,0.0,0.0,0,0.00,,OVC043,0.00,VWS V14.01,2013-07-20 10:12:00,
2013-07-20 06:17:00,70.5,0.0,30.01,SSE,154,0.0,0.0,0,0.00,,OVC043,0.00,VWS V14.01,2013-07-20 10:17:00,
2013-07-20 06:22:00,70.5,0.0,30.01,SSE,153,0.0,0.0,0,0.00,,OVC043,0.00,VWS V14.01,2013-07-20 10:22:00,
2013-07-20 06:27:00,70.6,0.0,30.01,SSE,154,0.0,0.0,0,0.00,,OVC043,0.00,VWS V14.01,2013-07-20 10:27:00,
2013-07-20 06:32:00,70.6,0.0,30.01,SSE,153,0.0,0.0,0,0.00,,OVC043,0.00,VWS V14.01,2013-07-20 10:32:00,
2013-07-20 06:37:00,70.6,0.0,30.01,SSE,153,0.0,0.0,0,0.00,,OVC043,0.00,VWS V14.01,2013-07-20 10:37:00,
2013-07-20 06:42:00,70.7,0.0,30.01,SSE,154,0.0,0.0,0,0.00,,OVC043,0.00,VWS V14.01,2013-07-20 10:42:00,
2013-07-20 06:47:00,70.7,0.0,30.01,SSE,153,0.0,0.0,0,0.00,,OVC043,0.00,VWS V14.01,2013-07-20 10:47:00,
2013-07-20 06:52:00,70.7,0.0,30.01,SSE,153,0.0,0.0,0,0.00,,OVC043,0.00,VWS V14.01,2013-07-20 10:52:00,
2013-07-20 06:57:00,70.6,0.0,30.01,SSE,154,0.0,0.0,0,0.00,,OVC043,0.00,VWS V14.01,2013-07-20 10:57:00,
2013-07-20 07:02:00,70.7,0.0,30.01,SSE,153,0.0,0.0,0,0.00,,OVC043,0.00,VWS V14.01,2013-07-20 11:02:00,
2013-07-20 07:07:00,70.7,0.0,30.02,SSE,153,0.0,0.0,0,0.00,,OVC043,0.00,VWS V14.01,2013-07-20 11:07:00,
2013-07-20 07:12:00,70.8,0.0,30.02,SSE,153,0.0,0.0,0,0.00,,OVC043,0.00,VWS V14.01,2013-07-20 11:12:00,
2013-07-20 07:17:00,70.9,0.0,30.02,SSE,153,0.0,0.0,0,0.00,,OVC043,0.00,VWS V14.01,2013-07-20 11:17:00,
2013-07-20 07:22:00,71.1,0.0,30.02,SSE,153,0.0,0.0,0,0.00,,OVC043,0.00,VWS V14.01,2013-07-20 11:22:00,
2013-07-20 07:27:00,71.3,0.0,30.02,SSE,154,0.0,0.0,0,0.00,,OVC043,0.00,VWS V14.01,2013-07-20 11:27:00,
2013-07-20 07:32:00,71.4,0.0,30.02,SSE,153,0.0,0.0,0,0.00,,OVC043,0.00,VWS V14.01,2013-07-20 11:32:00,
2013-07-20 07:37:00,71.6,0.0,30.02,SSE,154,0.0,0.0,0,0.00,,OVC043,0.00,VWS V14.01,2013-07-20 11:37:00,
2013-07-20 07:42:00,71.8,0.0,30.02,SSE,153,0.0,0.0,0,0.00,,OVC043,0.00,VWS V14.01,2013-07-20 11:42:00,
2013-07-20 07:47:00,72.0,0.0,30.02,SSE,153,0.0,0.0,0,0.00,,OVC043,0.00,VWS V14.01,2013-07-20 11:47:00,
2013-07-20 07:52:00,72.2,0.0,30.02,SSE,153,0.0,1.0,0,0.00,,OVC043,0.00,VWS V14.01,2013-07-20 11:52:00,
2013-07-20 07:57:00,72.4,0.0,30.02,SSE,153,0.0,1.0,0,0.00,,OVC043,0.00,VWS V14.01,2013-07-20 11:57:00,
2013-07-20 08:02:00,72.7,0.0,30.02,SSE,153,0.0,0.0,0,0.00,,OVC043,0.00,VWS V14.01,2013-07-20 12:02:00,
2013-07-20 08:07:00,72.8,0.0,30.02,SSE,153,0.0,0.0,0,0.00,,OVC043,0.00,VWS V14.01,2013-07-20 12:07:00,
2013-07-20 08:12:00,73.0,0.0,30.02,SSE,154,0.0,0.0,0,0.00,,OVC043,0.00,VWS V14.01,2013-07-20 12:12:00,
2013-07-20 08:17:00,73.2,0.0,30.02,SSE,153,0.0,0.0,0,0.00,,OVC043,0.00,VWS V14.01,2013-07-20 12:17:00,
2013-07-20 08:22:00,73.5,0.0,30.02,SSE,162,0.0,1.0,0,0.00,,OVC043,0.00,VWS V14.01,2013-07-20 12:22:00,
2013-07-20 08:27:00,73.9,0.0,30.03,SSE,162,0.0,1.0,0,0.00,,OVC043,0.00,VWS V14.01,2013-07-20 12:27:00,
2013-07-20 08:32:00,74.0,0.0,30.02,South,179,0.0,1.0,0,0.00,,OVC043,0.00,VWS V14.01,2013-07-20 12:32:00,
2013-07-20 08:37:00,74.2,0.0,30.03,South,180,0.0,1.0,0,0.00,,OVC043,0.00,VWS V14.01,2013-07-20 12:37:00,
2013-07-20 08:42:00,74.4,0.0,30.03,South,180,0.0,1.0,0,0.00,,OVC043,0.00,VWS V14.01,2013-07-20 12:42:00,
2013-07-20 08:47:00,74.6,0.0,30.03,South,180,0.0,1.0,0,0.00,,OVC043,0.00,VWS V14.01,2013-07-20 12:47:00,
2013-07-20 08:52:00,74.8,0.0,30.03,South,178,0.0,1.0,0,0.00,,OVC043,0.00,VWS V14.01,2013-07-20 12:52:00,
2013-07-20 08:57:00,74.9,0.0,30.03,South,180,0.0,1.0,0,0.00,,OVC043,0.00,VWS V14.01,2013-07-20 12:57:00,
2013-07-20 09:02:00,75.1,0.0,30.03,South,178,0.0,0.0,0,0.00,,OVC043,0.00,VWS V14.01,2013-07-20 13:02:00,
2013-07-20 09:07:00,75.4,0.0,30.03,South,180,0.0,0.0,0,0.00,,OVC043,0.00,VWS V14.01,2013-07-20 13:07:00,
2013-07-20 09:12:00,75.7,0.0,30.03,South,179,0.0,0.0,0,0.00,,OVC043,0.00,VWS V14.01,2013-07-20 13:12:00,
2013-07-20 09:17:00,76.0,0.0,30.03,SE,139,1.0,1.0,0,0.00,,OVC043,0.00,VWS V14.01,2013-07-20 13:17:00,
2013-07-20 09:22:00,76.5,0.0,30.03,SW,215,0.0,2.0,0,0.00,,OVC043,0.00,VWS V14.01,2013-07-20 13:22:00,
2013-07-20 09:27:00,77.0,0.0,30.03,South,190,0.0,2.0,0,0.00,,OVC043,0.00,VWS V14.01,2013-07-20 13:27:00,
2013-07-20 09:32:00,77.4,0.0,30.03,South,190,0.0,1.0,0,0.00,,OVC043,0.00,VWS V14.01,2013-07-20 13:32:00,
2013-07-20 09:37:00,77.5,0.0,30.03,South,172,1.0,1.0,0,0.00,,OVC043,0.00,VWS V14.01,2013-07-20 13:37:00,
2013-07-20 09:42:00,77.7,0.0,30.03,South,172,0.0,1.0,0,0.00,,OVC043,0.00,VWS V14.01,2013-07-20 13:42:00,
2013-07-20 09:47:00,77.8,0.0,30.03,SSE,166,0.0,1.0,0,0.00,,OVC043,0.00,VWS V14.01,2013-07-20 13:47:00,
2013-07-20 09:52:00,78.2,0.0,30.04,SSE,166,0.0,1.0,0,0.00,,OVC043,0.00,VWS V14.01,2013-07-20 13:52:00,
2013-07-20 09:57:00,78.8,0.0,30.04,WSW,248,1.0,2.0,0,0.00,,OVC043,0.00,VWS V14.01,2013-07-20 13:57:00,
2013-07-20 10:02:00,79.2,0.0,30.04,South,191,0.0,1.0,0,0.00,,OVC043,0.00,VWS V14.01,2013-07-20 14:02:00,
2013-07-20 10:07:00,80.0,0.0,30.04,SSE,158,1.0,1.0,0,0.00,,OVC043,0.00,VWS V14.01,2013-07-20 14:07:00,
2013-07-20 10:12:00,80.4,0.0,30.04,SW,219,0.0,3.0,0,0.00,,OVC043,0.00,VWS V14.01,2013-07-20 14:12:00,
2013-07-20 10:17:00,80.2,0.0,30.04,SSE,159,0.0,3.0,0,0.00,,OVC043,0.00,VWS V14.01,2013-07-20 14:17:00,
2013-07-20 10:22:00,80.6,0.0,30.03,ESE,123,2.0,3.0,0,0.00,,OVC043,0.00,VWS V14.01,2013-07-20 14:22:00,
2013-07-20 10:28:00,80.4,-1.4,30.03,SW,218,0.0,4.0,4,0.00,,OVC043,0.00,VWS V14.01,2013-07-20 14:28:00,
2013-07-20 10:32:00,80.5,3.4,30.03,SSE,150,1.0,2.0,5,0.00,,OVC043,0.00,VWS V14.01,2013-07-20 14:32:00,
2013-07-20 10:37:00,81.3,-15.0,30.03,SE,141,2.0,4.0,2,0.00,,OVC043,0.00,VWS V14.01,2013-07-20 14:37:00,
2013-07-20 10:43:00,81.3,27.6,30.03,South,186,1.0,4.0,14,0.00,,OVC043,0.00,VWS V14.01,2013-07-20 14:43:00,
2013-07-20 10:47:00,81.3,27.6,30.03,SSW,210,0.0,4.0,14,0.00,,OVC043,0.00,VWS V14.01,2013-07-20 14:47:00,
2013-07-20 10:52:00,81.4,24.0,30.03,WSW,242,2.0,4.0,12,0.00,,OVC043,0.00,VWS V14.01,2013-07-20 14:52:00,
2013-07-20 10:58:00,81.2,33.7,30.03,SSW,194,2.0,4.0,18,0.00,,OVC043,0.00,VWS V14.01,2013-07-20 14:58:00,
2013-07-20 11:03:00,81.3,27.6,30.03,South,181,1.0,1.0,14,0.00,,OVC043,0.00,VWS V14.01,2013-07-20 15:03:00,
2013-07-20 11:08:00,81.5,29.4,30.03,SE,125,1.0,2.0,15,0.00,,OVC043,0.00,VWS V14.01,2013-07-20 15:08:00,
2013-07-20 11:13:00,81.6,27.8,30.03,SSW,193,1.0,3.0,14,0.00,,OVC043,0.00,VWS V14.01,2013-07-20 15:13:00,
2013-07-20 11:18:00,81.6,32.6,30.03,SSW,205,0.0,3.0,17,0.00,,OVC043,0.00,VWS V14.01,2013-07-20 15:18:00,
2013-07-20 11:23:00,82.2,12.1,30.03,WSW,253,0.0,3.0,7,0.00,,OVC043,0.00,VWS V14.01,2013-07-20 15:23:00,
2013-07-20 11:28:00,83.2,5.3,30.02,South,183,1.0,4.0,5,0.00,,OVC043,0.00,VWS V14.01,2013-07-20 15:28:00,
2013-07-20 11:33:00,83.7,43.1,30.02,WSW,248,0.0,4.0,24,0.00,,OVC043,0.00,VWS V14.01,2013-07-20 15:33:00,
2013-07-20 11:38:00,84.6,47.0,30.02,South,170,2.0,4.0,27,0.00,,OVC043,0.00,VWS V14.01,2013-07-20 15:38:00,
2013-07-20 11:43:00,85.1,51.1,30.02,SW,217,0.0,4.0,31,0.00,,OVC043,0.00,VWS V14.01,2013-07-20 15:43:00,
2013-07-20 11:48:00,85.1,55.9,30.02,SSW,198,0.0,4.0,37,0.00,,OVC043,0.00,VWS V14.01,2013-07-20 15:48:00,
2013-07-20 11:53:00,85.3,56.1,30.01,SSE,158,2.0,5.0,37,0.00,,OVC043,0.00,VWS V14.01,2013-07-20 15:53:00,
2013-07-20 11:58:00,85.1,58.1,30.01,South,179,0.0,5.0,40,0.00,,OVC043,0.00,VWS V14.01,2013-07-20 15:58:00,
2013-07-20 12:03:00,85.7,57.9,30.01,SE,139,1.0,1.0,39,0.00,,OVC043,0.00,VWS V14.01,2013-07-20 16:03:00,
2013-07-20 12:08:00,86.1,60.3,30.01,South,190,0.0,4.0,42,0.00,,OVC043,0.00,VWS V14.01,2013-07-20 16:08:00,
2013-07-20 12:13:00,86.5,62.0,30.02,SE,135,0.0,4.0,44,0.00,,OVC043,0.00,VWS V14.01,2013-07-20 16:13:00,
2013-07-20 12:18:00,87.4,63.5,30.01,South,187,1.0,4.0,45,0.00,,OVC043,0.00,VWS V14.01,2013-07-20 16:18:00,
2013-07-20 12:23:00,87.9,68.7,30.01,WSW,247,2.0,4.0,53,0.00,,OVC043,0.00,VWS V14.01,2013-07-20 16:23:00,
2013-07-20 12:28:00,87.0,64.3,30.01,WSW,245,1.0,4.0,47,0.00,,OVC043,0.00,VWS V14.01,2013-07-20 16:28:00,
2013-07-20 12:33:00,86.4,65.0,30.00,WSW,238,1.0,3.0,49,0.00,,OVC043,0.00,VWS V14.01,2013-07-20 16:33:00,
2013-07-20 12:38:00,85.7,61.9,30.00,SSE,153,1.0,5.0,45,0.00,,OVC043,0.00,VWS V14.01,2013-07-20 16:38:00,
2013-07-20 12:43:00,85.2,59.5,30.00,WSW,250,2.0,5.0,42,0.00,,OVC043,0.00,VWS V14.01,2013-07-20 16:43:00,
2013-07-20 12:48:00,84.7,58.4,30.00,SSE,153,0.0,5.0,41,0.00,,OVC043,0.00,VWS V14.01,2013-07-20 16:48:00,
2013-07-20 12:53:00,83.6,59.4,30.01,WNW,288,1.0,5.0,44,0.00,,OVC043,0.00,VWS V14.01,2013-07-20 16:53:00,
2013-07-20 12:58:00,81.9,63.1,30.00,ESE,115,0.0,5.0,53,0.00,,OVC043,0.00,VWS V14.01,2013-07-20 16:58:00,
2013-07-20 13:03:00,80.3,60.0,30.00,NW,306,0.0,1.0,50,0.00,,OVC043,0.00,VWS V14.01,2013-07-20 17:03:00,
2013-07-20 13:08:00,78.7,55.6,30.00,NW,307,0.0,1.0,45,0.00,,OVC043,0.00,VWS V14.01,2013-07-20 17:08:00,
2013-07-20 13:13:00,77.9,48.8,30.01,West,278,1.0,1.0,36,0.00,,OVC043,0.00,VWS V14.01,2013-07-20 17:13:00,
2013-07-20 13:18:00,77.4,47.6,30.00,ENE,67,0.0,2.0,35,0.00,,OVC043,0.00,VWS V14.01,2013-07-20 17:18:00,
2013-07-20 13:23:00,76.9,43.1,30.01,NNW,345,1.0,2.0,30,0.00,,OVC043,0.00,VWS V14.01,2013-07-20 17:23:00,
2013-07-20 13:28:00,76.2,38.8,30.00,NNE,15,0.0,2.0,26,0.00,,OVC043,0.00,VWS V14.01,2013-07-20 17:28:00,
2013-07-20 13:33:00,76.0,30.8,30.00,NNE,27,0.0,0.0,19,0.00,,OVC043,0.00,VWS V14.01,2013-07-20 17:33:00,
2013-07-20 13:38:00,75.9,28.0,30.01,NW,323,0.0,1.0,17,0.00,,OVC043,0.00,VWS V14.01,2013-07-20 17:38:00,
2013-07-20 13:43:00,75.5,19.4,30.02,NW,325,0.0,1.0,12,0.00,,OVC043,0.00,VWS V14.01,2013-07-20 17:43:00,
2013-07-20 13:48:00,75.3,12.6,30.02,NW,325,0.0,1.0,9,0.00,,OVC043,0.00,VWS V14.01,2013-07-20 17:48:00,
2013-07-20 13:53:00,74.8,0.0,30.02,NW,325,0.0,1.0,0,0.00,,OVC043,0.00,VWS V14.01,2013-07-20 17:53:00,
2013-07-20 13:58:00,74.5,0.0,30.02,NW,325,0.0,1.0,0,0.00,,OVC043,0.00,VWS V14.01,2013-07-20 17:58:00,
2013-07-20 14:03:00,74.3,0.0,30.02,ESE,121,0.0,2.0,0,0.02,,OVC043,0.02,VWS V14.01,2013-07-20 18:03:00,
2013-07-20 14:08:00,73.9,0.0,30.01,SW,224,1.0,4.0,0,0.06,,OVC043,0.06,VWS V14.01,2013-07-20 18:08:00,
2013-07-20 14:13:00,73.4,0.0,30.01,SE,146,0.0,4.0,0,0.08,,OVC043,0.08,VWS V14.01,2013-07-20 18:13:00,
2013-07-20 14:18:00,73.3,0.0,30.00,SE,146,0.0,4.0,0,0.10,,OVC043,0.10,VWS V14.01,2013-07-20 18:18:00,
2013-07-20 14:23:00,73.2,0.0,30.00,SE,146,0.0,4.0,0,0.12,,OVC043,0.12,VWS V14.01,2013-07-20 18:23:00,
2013-07-20 14:28:00,73.0,0.0,29.99,SSE,165,1.0,4.0,0,0.13,,OVC043,0.13,VWS V14.01,2013-07-20 18:28:00,
2013-07-20 14:33:00,72.7,0.0,29.99,SSE,166,0.0,0.0,0,0.13,,OVC043,0.13,VWS V14.01,2013-07-20 18:33:00,
2013-07-20 14:38:00,72.7,0.0,29.99,SSE,165,0.0,0.0,0,0.14,,OVC043,0.14,VWS V14.01,2013-07-20 18:38:00,
2013-07-20 14:43:00,72.5,0.0,29.99,SSE,165,0.0,0.0,0,0.14,,OVC043,0.14,VWS V14.01,2013-07-20 18:43:00,
2013-07-20 14:48:00,72.6,0.0,29.99,SSE,153,0.0,0.0,0,0.14,,OVC043,0.14,VWS V14.01,2013-07-20 18:48:00,
2013-07-20 14:53:00,72.6,0.0,29.99,SSE,153,1.0,1.0,0,0.14,,OVC043,0.14,VWS V14.01,2013-07-20 18:53:00,
2013-07-20 14:58:00,72.6,0.0,29.99,SSE,153,0.0,1.0,0,0.14,,OVC043,0.14,VWS V14.01,2013-07-20 18:58:00,
2013-07-20 15:03:00,72.8,0.0,29.98,SSE,153,0.0,1.0,0,0.14,,OVC043,0.14,VWS V14.01,2013-07-20 19:03:00,
2013-07-20 15:09:00,72.7,0.0,29.98,SSE,153,0.0,1.0,0,0.14,,OVC043,0.14,VWS V14.01,2013-07-20 19:09:00,
2013-07-20 15:14:00,72.7,0.0,29.98,SSE,153,0.0,1.0,0,0.14,,OVC043,0.14,VWS V14.01,2013-07-20 19:14:00,
2013-07-20 15:19:00,72.7,0.0,29.99,South,183,0.0,1.0,0,0.14,,OVC043,0.14,VWS V14.01,2013-07-20 19:19:00,
2013-07-20 15:24:00,72.8,0.0,30.00,SSW,194,0.0,1.0,0,0.14,,OVC043,0.14,VWS V14.01,2013-07-20 19:24:00,
2013-07-20 15:29:00,72.6,0.0,30.00,SSE,160,1.0,1.0,0,0.14,,OVC043,0.14,VWS V14.01,2013-07-20 19:29:00,
2013-07-20 15:34:00,72.7,0.0,30.01,SSE,158,1.0,2.0,0,0.01,,OVC043,0.14,VWS V14.01,2013-07-20 19:34:00,
2013-07-20 15:39:00,72.8,0.0,30.01,SW,228,0.0,2.0,0,0.01,,OVC043,0.14,VWS V14.01,2013-07-20 19:39:00,
2013-07-20 15:44:00,72.8,0.0,30.01,SSW,200,1.0,3.0,0,0.01,,OVC043,0.14,VWS V14.01,2013-07-20 19:44:00,
2013-07-20 15:49:00,72.6,0.0,30.00,SSW,194,0.0,3.0,0,0.01,,OVC043,0.14,VWS V14.01,2013-07-20 19:49:00,
2013-07-20 15:54:00,72.4,0.0,30.00,SSE,152,0.0,3.0,0,0.01,,OVC043,0.14,VWS V14.01,2013-07-20 19:54:00,
2013-07-20 15:59:00,72.5,0.0,29.99,SE,141,0.0,3.0,0,0.01,,OVC043,0.14,VWS V14.01,2013-07-20 19:59:00,
2013-07-20 16:04:00,72.6,0.0,30.00,SSE,153,1.0,1.0,0,0.00,,OVC043,0.14,VWS V14.01,2013-07-20 20:04:00,
2013-07-20 16:09:00,72.6,0.0,30.00,SSE,152,0.0,1.0,0,0.00,,OVC043,0.14,VWS V14.01,2013-07-20 20:09:00,
2013-07-20 16:14:00,72.8,0.0,30.00,SSE,152,0.0,1.0,0,0.00,,OVC043,0.14,VWS V14.01,2013-07-20 20:14:00,
2013-07-20 16:19:00,72.7,0.0,30.00,SSE,152,0.0,1.0,0,0.00,,OVC043,0.14,VWS V14.01,2013-07-20 20:19:00,
2013-07-20 16:24:00,72.8,0.0,29.99,SSE,152,0.0,1.0,0,0.00,,OVC043,0.14,VWS V14.01,2013-07-20 20:24:00,
2013-07-20 16:29:00,72.9,0.0,29.99,SSE,152,0.0,1.0,0,0.00,,OVC043,0.14,VWS V14.01,2013-07-20 20:29:00,
2013-07-20 16:34:00,72.9,0.0,29.99,SSE,152,0.0,0.0,0,0.00,,OVC043,0.14,VWS V14.01,2013-07-20 20:34:00,
2013-07-20 16:39:00,73.0,0.0,29.98,SSE,152,0.0,0.0,0,0.00,,OVC043,0.14,VWS V14.01,2013-07-20 20:39:00,
2013-07-20 16:44:00,73.1,0.0,29.98,SSE,152,0.0,0.0,0,0.00,,OVC043,0.14,VWS V14.01,2013-07-20 20:44:00,
2013-07-20 16:49:00,73.1,0.0,29.98,SSE,152,0.0,0.0,0,0.00,,OVC043,0.14,VWS V14.01,2013-07-20 20:49:00,
2013-07-20 16:55:00,73.1,0.0,29.98,SSE,152,0.0,0.0,0,0.00,,OVC043,0.14,VWS V14.01,2013-07-20 20:55:00,
2013-07-20 17:00:00,73.1,0.0,29.98,ENE,75,0.0,1.0,0,0.00,,OVC043,0.14,VWS V14.01,2013-07-20 21:00:00,
2013-07-20 17:05:00,72.9,0.0,29.98,ENE,68,0.0,2.0,0,0.00,,OVC043,0.14,VWS V14.01,2013-07-20 21:05:00,
2013-07-20 17:10:00,72.8,0.0,29.98,ENE,68,1.0,2.0,0,0.00,,OVC043,0.14,VWS V14.01,2013-07-20 21:10:00,
2013-07-20 17:15:00,72.8,0.0,29.98,ENE,68,1.0,2.0,0,0.00,,OVC043,0.14,VWS V14.01,2013-07-20 21:15:00,
2013-07-20 17:20:00,72.7,0.0,29.98,NE,47,0.0,2.0,0,0.00,,OVC043,0.14,VWS V14.01,2013-07-20 21:20:00,
2013-07-20 17:25:00,72.7,0.0,29.98,NE,47,0.0,2.0,0,0.00,,OVC043,0.14,VWS V14.01,2013-07-20 21:25:00,
2013-07-20 17:30:00,72.7,0.0,29.98,ENE,63,0.0,0.0,0,0.00,,OVC043,0.14,VWS V14.01,2013-07-20 21:30:00,
2013-07-20 17:35:00,72.6,0.0,29.97,ENE,77,0.0,1.0,0,0.00,,OVC043,0.14,VWS V14.01,2013-07-20 21:35:00,
2013-07-20 17:40:00,72.5,0.0,29.97,ENE,78,0.0,1.0,0,0.00,,OVC043,0.14,VWS V14.01,2013-07-20 21:40:00,
2013-07-20 17:45:00,72.5,0.0,29.97,East,82,0.0,2.0,0,0.00,,OVC043,0.14,VWS V14.01,2013-07-20 21:45:00,
2013-07-20 17:50:00,72.3,0.0,29.96,East,86,0.0,2.0,0,0.00,,OVC043,0.14,VWS V14.01,2013-07-20 21:50:00,
2013-07-20 17:55:00,72.4,0.0,29.97,East,86,0.0,2.0,0,0.00,,OVC043,0.14,VWS V14.01,2013-07-20 21:55:00,
2013-07-20 18:00:00,72.4,0.0,29.97,East,86,0.0,0.0,0,0.00,,OVC043,0.14,VWS V14.01,2013-07-20 22:00:00,
2013-07-20 18:06:00,72.4,0.0,29.97,East,86,0.0,0.0,0,0.00,,OVC043,0.14,VWS V14.01,2013-07-20 22:06:00,
2013-07-20 18:11:00,72.4,0.0,29.97,East,84,0.0,0.0,0,0.00,,OVC043,0.14,VWS V14.01,2013-07-20 22:11:00,
2013-07-20 18:16:00,72.4,0.0,29.97,East,85,0.0,0.0,0,0.00,,OVC043,0.14,VWS V14.01,2013-07-20 22:16:00,
2013-07-20 18:21:00,72.3,0.0,29.97,East,98,1.0,2.0,0,0.00,,OVC043,0.14,VWS V14.01,2013-07-20 22:21:00,
2013-07-20 18:26:00,72.3,0.0,29.97,East,97,0.0,2.0,0,0.00,,OVC043,0.14,VWS V14.01,2013-07-20 22:26:00,
2013-07-20 18:31:00,72.4,0.0,29.97,ESE,114,0.0,0.0,0,0.00,,OVC043,0.14,VWS V14.01,2013-07-20 22:31:00,
2013-07-20 18:36:00,72.4,0.0,29.96,SE,131,0.0,1.0,0,0.00,,OVC043,0.14,VWS V14.01,2013-07-20 22:36:00,
2013-07-20 18:41:00,72.4,0.0,29.97,SSW,198,0.0,1.0,0,0.00,,OVC043,0.14,VWS V14.01,2013-07-20 22:41:00,
2013-07-20 18:46:00,72.4,0.0,29.97,SSW,198,0.0,1.0,0,0.00,,OVC043,0.14,VWS V14.01,2013-07-20 22:46:00,
2013-07-20 18:52:00,72.5,0.0,29.96,SE,143,0.0,1.0,0,0.00,,OVC043,0.14,VWS V14.01,2013-07-20 22:52:00,
2013-07-20 18:57:00,72.6,0.0,29.96,East,87,0.0,2.0,0,0.00,,OVC043,0.14,VWS V14.01,2013-07-20 22:57:00,
2013-07-20 19:02:00,72.8,0.0,29.96,South,172,0.0,0.0,0,0.00,,OVC043,0.14,VWS V14.01,2013-07-20 23:02:00,
2013-07-20 19:07:00,72.8,0.0,29.96,East,83,0.0,1.0,0,0.00,,OVC043,0.14,VWS V14.01,2013-07-20 23:07:00,
2013-07-20 19:12:00,72.8,0.0,29.96,East,83,0.0,1.0,0,0.00,,OVC043,0.14,VWS V14.01,2013-07-20 23:12:00,
2013-07-20 19:17:00,72.8,0.0,29.97,East,80,1.0,1.0,0,0.00,,OVC043,0.14,VWS V14.01,2013-07-20 23:17:00,
2013-07-20 19:22:00,72.8,0.0,29.97,East,83,0.0,1.0,0,0.00,,OVC043,0.14,VWS V14.01,2013-07-20 23:22:00,
2013-07-20 19:27:00,72.8,0.0,29.96,SE,146,0.0,1.0,0,0.00,,OVC043,0.14,VWS V14.01,2013-07-20 23:27:00,
2013-07-20 19:33:00,72.9,0.0,29.97,SSE,160,0.0,1.0,0,0.00,,OVC043,0.14,VWS V14.01,2013-07-20 23:33:00,
2013-07-20 19:38:00,73.0,0.0,29.96,SE,135,0.0,1.0,0,0.00,,OVC043,0.14,VWS V14.01,2013-07-20 23:38:00,
2013-07-20 19:43:00,73.0,0.0,29.97,SSE,150,0.0,1.0,0,0.00,,OVC043,0.14,VWS V14.01,2013-07-20 23:43:00,
2013-07-20 19:48:00,73.0,0.0,29.98,SSE,150,0.0,1.0,0,0.00,,OVC043,0.14,VWS V14.01,2013-07-20 23:48:00,
2013-07-20 19:53:00,73.0,0.0,29.98,SSE,151,0.0,1.0,0,0.00,,OVC043,0.14,VWS V14.01,2013-07-20 23:53:00,
2013-07-20 19:58:00,72.8,0.0,29.98,SSE,151,0.0,1.0,0,0.00,,OVC043,0.14,VWS V14.01,2013-07-20 23:58:00,
2013-07-20 20:03:00,72.6,0.0,29.98,SSE,150,0.0,0.0,0,0.00,,OVC043,0.14,VWS V14.01,2013-07-21 00:03:00,
2013-07-20 20:08:00,72.4,0.0,29.98,SSE,151,0.0,0.0,0,0.00,,OVC043,0.14,VWS V14.01,2013-07-21 00:08:00,
2013-07-20 20:13:00,72.3,0.0,29.99,SSE,150,0.0,0.0,0,0.00,,OVC043,0.14,VWS V14.01,2013-07-21 00:13:00,
2013-07-20 20:18:00,72.2,0.0,29.99,SSE,151,0.0,0.0,0,0.00,,OVC043,0.14,VWS V14.01,2013-07-21 00:18:00,
2013-07-20 20:23:00,72.0,0.0,29.99,SSE,150,0.0,0.0,0,0.00,,OVC043,0.14,VWS V14.01,2013-07-21 00:23:00,
2013-07-20 20:28:00,72.0,0.0,29.99,SSE,150,0.0,0.0,0,0.00,,OVC043,0.14,VWS V14.01,2013-07-21 00:28:00,
2013-07-20 20:33:00,72.0,0.0,29.99,SSE,151,0.0,0.0,0,0.00,,OVC043,0.14,VWS V14.01,2013-07-21 00:33:00,
2013-07-20 20:38:00,71.9,0.0,29.99,SSE,151,0.0,0.0,0,0.00,,OVC043,0.14,VWS V14.01,2013-07-21 00:38:00,
2013-07-20 20:43:00,71.8,0.0,29.99,SSE,165,0.0,1.0,0,0.00,,OVC043,0.14,VWS V14.01,2013-07-21 00:43:00,
2013-07-20 20:48:00,71.6,0.0,29.99,SSE,165,0.0,1.0,0,0.00,,OVC043,0.14,VWS V14.01,2013-07-21 00:48:00,
2013-07-20 20:53:00,71.4,0.0,29.99,SSE,165,0.0,1.0,0,0.00,,OVC043,0.14,VWS V14.01,2013-07-21 00:53:00,
2013-07-20 20:59:00,71.3,0.0,29.99,SSE,165,0.0,1.0,0,0.00,,OVC043,0.14,VWS V14.01,2013-07-21 00:59:00,
2013-07-20 21:04:00,71.2,0.0,29.99,SSE,164,0.0,0.0,0,0.00,,OVC043,0.14,VWS V14.01,2013-07-21 01:04:00,
2013-07-20 21:09:00,71.1,0.0,29.99,SSE,165,0.0,0.0,0,0.00,,OVC043,0.14,VWS V14.01,2013-07-21 01:09:00,
2013-07-20 21:14:00,71.0,0.0,29.99,SSE,165,0.0,0.0,0,0.00,,OVC043,0.14,VWS V14.01,2013-07-21 01:14:00,
2013-07-20 21:19:00,70.9,0.0,29.99,SSE,165,0.0,0.0,0,0.00,,OVC043,0.14,VWS V14.01,2013-07-21 01:19:00,
2013-07-20 21:24:00,70.9,0.0,30.00,SSE,165,0.0,0.0,0,0.00,,OVC043,0.14,VWS V14.01,2013-07-21 01:24:00,
2013-07-20 21:29:00,70.7,0.0,30.00,SSE,165,0.0,0.0,0,0.00,,OVC043,0.14,VWS V14.01,2013-07-21 01:29:00,
2013-07-20 21:34:00,70.7,0.0,30.00,SSE,165,0.0,0.0,0,0.00,,OVC043,0.14,VWS V14.01,2013-07-21 01:34:00,
2013-07-20 21:40:00,70.7,0.0,30.01,SSE,165,0.0,1.0,0,0.00,,OVC043,0.14,VWS V14.01,2013-07-21 01:40:00,
2013-07-20 21:45:00,70.6,0.0,30.01,SSE,165,0.0,1.0,0,0.00,,OVC043,0.14,VWS V14.01,2013-07-21 01:45:00,
2013-07-20 21:50:00,70.5,0.0,30.01,SSE,165,0.0,1.0,0,0.00,,OVC043,0.14,VWS V14.01,2013-07-21 01:50:00,
2013-07-20 21:55:00,70.4,0.0,30.01,SSE,165,0.0,1.0,0,0.00,,OVC043,0.14,VWS V14.01,2013-07-21 01:55:00,
2013-07-20 22:00:00,70.4,0.0,30.01,SSE,165,0.0,0.0,0,0.00,,OVC043,0.14,VWS V14.01,2013-07-21 02:00:00,
2013-07-20 22:05:00,70.4,0.0,30.01,SSE,165,0.0,0.0,0,0.00,,OVC043,0.14,VWS V14.01,2013-07-21 02:05:00,
2013-07-20 22:10:00,70.4,0.0,30.01,SSE,165,0.0,0.0,0,0.00,,OVC043,0.14,VWS V14.01,2013-07-21 02:10:00,
2013-07-20 22:15:00,70.3,0.0,30.01,SSE,164,0.0,0.0,0,0.00,,OVC043,0.14,VWS V14.01,2013-07-21 02:15:00,
2013-07-20 22:20:00,70.3,0.0,30.02,SSE,165,0.0,0.0,0,0.00,,OVC043,0.14,VWS V14.01,2013-07-21 02:20:00,
2013-07-20 22:25:00,70.1,0.0,30.02,SSE,165,0.0,0.0,0,0.00,,OVC043,0.14,VWS V14.01,2013-07-21 02:25:00,
2013-07-20 22:30:00,70.2,0.0,30.02,SSE,165,0.0,0.0,0,0.00,,OVC043,0.14,VWS V14.01,2013-07-21 02:30:00,
2013-07-20 22:35:00,70.1,0.0,30.02,SSE,165,0.0,0.0,0,0.00,,OVC043,0.14,VWS V14.01,2013-07-21 02:35:00,
2013-07-20 22:40:00,70.0,0.0,30.02,SSE,165,0.0,0.0,0,0.00,,OVC043,0.14,VWS V14.01,2013-07-21 02:40:00,
2013-07-20 22:45:00,69.9,0.0,30.02,SSE,165,0.0,0.0,0,0.00,,OVC043,0.14,VWS V14.01,2013-07-21 02:45:00,
2013-07-20 22:50:00,70.0,0.0,30.02,SSE,165,0.0,0.0,0,0.00,,OVC043,0.14,VWS V14.01,2013-07-21 02:50:00,
2013-07-20 22:55:00,70.0,0.0,30.03,SSE,165,0.0,0.0,0,0.00,,OVC043,0.14,VWS V14.01,2013-07-21 02:55:00,
2013-07-20 23:00:00,69.9,0.0,30.03,SSE,165,0.0,0.0,0,0.00,,OVC043,0.14,VWS V14.01,2013-07-21 03:00:00,
2013-07-20 23:06:00,70.0,0.0,30.03,SSE,165,0.0,0.0,0,0.00,,OVC043,0.14,VWS V14.01,2013-07-21 03:06:00,
2013-07-20 23:11:00,70.1,0.0,30.03,SSE,165,0.0,0.0,0,0.00,,OVC043,0.14,VWS V14.01,2013-07-21 03:11:00,
2013-07-20 23:16:00,70.0,0.0,30.03,SSE,165,0.0,0.0,0,0.00,,OVC043,0.14,VWS V14.01,2013-07-21 03:16:00,
2013-07-20 23:21:00,70.0,0.0,30.02,SSE,165,0.0,0.0,0,0.00,,OVC043,0.14,VWS V14.01,2013-07-21 03:21:00,
2013-07-20 23:26:00,69.9,0.0,30.02,SSE,165,0.0,0.0,0,0.00,,OVC043,0.14,VWS V14.01,2013-07-21 03:26:00,
2013-07-20 23:31:00,69.8,0.0,30.03,SSE,164,0.0,0.0,0,0.00,,OVC043,0.14,VWS V14.01,2013-07-21 03:31:00,
2013-07-20 23:36:00,69.7,0.0,30.03,SSE,165,0.0,0.0,0,0.00,,OVC043,0.14,VWS V14.01,2013-07-21 03:36:00,
2013-07-20 23:41:00,69.6,0.0,30.03,SSE,165,0.0,0.0,0,0.00,,OVC043,0.14,VWS V14.01,2013-07-21 03:41:00,
2013-07-20 23:47:00,69.6,0.0,30.03,SSE,165,0.0,0.0,0,0.00,,OVC043,0.14,VWS V14.01,2013-07-21 03:47:00,
2013-07-20 23:52:00,69.6,0.0,30.03,SSE,165,0.0,0.0,0,0.00,,OVC043,0.14,VWS V14.01,2013-07-21 03:52:00,
2013-07-20 23:57:00,69.6,0.0,30.03,SSE,165,0.0,0.0,0,0.00,,OVC043,0.14,VWS V14.01,2013-07-21 03:57:00,